Back to catalog

CZ-6A DEB

AliveSSO
NORAD 54410·DEBRIS·🇨🇳 China

Launched Nov 11, 2022 from Taiyuan Satellite Launch Center

Loading…

Next Passes (next 24 hours)

TLE

FreshSource: Space-Track

Epoch: Sep 14, 2026, 02:12 UTC

1 54410U 22151EJ  26257.09195902  .00001416  00000-0  39659-3 0  9999
2 54410  98.6837 307.4063 0126244 355.4913   4.5129 14.43174163201197

Track CZ-6A DEB in real time with AllMySat

Download on the App Store